Tracking 19192 objects as of 20-Jun-2018
HD Live streaming from Space Station
objects crossing your sky now

COSMOS 1799

Track COSMOS 1799 now!
10-day predictions
COSMOS 1799 is classified as:


NORAD ID: 17143
Int'l Code: 1986-092F
Perigee: 1,420.2 km
Apogee: 1,479.5 km
Inclination: 74.0 °
Period: 114.7 minutes
Semi major axis: 7820 km
RCS: 0.7053 m2 (medium)
Launch date: November 21, 1986
Source: Commonwealth of Independent States (former USSR) (CIS)
Launch site: PLESETSK MISSILE AND SPACE COMPLEX (PKMTR)
aabbcc
Your satellite tracking list
Your tracking list is empty




NASA's NSSDC Master Catalog

Two Line Element Set (TLE):
1 17143U 86092F   18170.95022382 -.00000010 +00000-0 +38048-4 0  9998
2 17143 074.0153 088.1019 0037896 266.3221 165.5946 12.55229678446940
Source of the keplerian elements: AFSPC